Flag for Germany Weather past 2 weeks in Kaiserslautern, Rhineland-Palatinate, Germany

Now
52 °F

Low clouds.


Feels Like: 48 °F
Forecast: 41 / 52 °F
Wind: 13 mph from Southwest

Location: Ramstein

Current Time: Dec 18, 2014 at 1:50:58 PM

Latest Report: Dec 18, 2014 at 12:58 PM


Visibility: N/A

Pressure: 29.98 "Hg

Humidity: 93%

Dew point: 50 °F

Location of KaiserslauternLocation

Historic Weather in Kaiserslautern — Graph

°F

Kaiserslautern temperature yesterday

Maximum temperature yesterday: 45 °F (at 11:58 PM)
Minimum temperature yesterday: 37 °F (at 12:58 AM)
Average temperature yesterday: 40 °F

Past Weeks' High & Low Weather Summary

 TemperatureHumidityPressure
High52 °F (Dec 18, 12:58 PM)100% (Dec 3, 12:04 PM)30.46 "Hg (Dec 3, 12:04 PM)
Low30 °F (Dec 8, 5:58 PM)65% (Dec 12, 6:58 PM)29.65 "Hg (Dec 12, 5:58 PM)
Average40 °F91%30.05 "Hg
* Reported Dec 3 12:04 PM — Dec 18 12:58 PM, Kaiserslautern, Weather by CustomWeather, © 2014

Note: Actual official high and low records may vary slightly from our data, if they occured in-between our weather recording intervals... More about our weather records

Advertising

Kaiserslautern weather history for previous 24 hours

 ConditionsComfort  
Time TempWeatherWind HumidityBarometerVisibility
12:58 PM
Dec 18
52 °FLow clouds.13 mph93%29.98 "HgN/A
11:59 AM52 °FLight rain. Overcast.8 mph94%29.96 "HgN/A
10:58 AM50 °FLow clouds.9 mph94%29.98 "HgN/A
9:58 AM50 °FLow clouds.8 mph93%29.97 "HgN/A
9:03 AM48 °FOvercast.12 mph94%29.95 "HgN/A
8:58 AM48 °FLow clouds.8 mph94%29.97 "HgN/A
7:58 AM48 °FMostly cloudy.9 mph95%29.96 "HgN/A
6:58 AM47 °FMostly cloudy.7 mph97%29.97 "HgN/A
5:58 AM46 °FLow clouds.5 mph97%29.96 "HgN/A
4:58 AM46 °FLow clouds.8 mph99%29.97 "HgN/A
3:58 AM46 °FLow clouds.6 mph99%29.97 "HgN/A
2:58 AM46 °FLow clouds.8 mph97%29.98 "HgN/A
1:58 AM46 °FLow clouds.8 mph98%29.97 "HgN/A
12:58 AM45 °FLow clouds.9 mph100%29.96 "HgN/A
11:58 PM
Dec 17
45 °FLow clouds.10 mph100%29.95 "HgN/A
10:58 PM44 °FLow clouds.7 mph99%29.93 "HgN/A
9:59 PM43 °FFog.8 mph100%29.89 "Hg5 mi
8:58 PM43 °FLow clouds.9 mph98%29.90 "HgN/A
7:58 PM43 °FLow clouds.5 mph94%29.88 "HgN/A
6:58 PM42 °FLow clouds.10 mph95%29.86 "HgN/A
5:58 PM43 °FLow clouds.10 mph93%29.84 "HgN/A
4:58 PM41 °FLow clouds.7 mph100%29.82 "HgN/A
3:58 PM41 °FFog.8 mph96%29.79 "Hg5 mi
3:00 PM39 °FLow clouds.12 mph93%29.74 "HgN/A
2:01 PM39 °FLight rain. Overcast.13 mph93%29.75 "HgN/A
1:58 PM39 °FLight rain. Overcast.17 mph93%29.78 "HgN/A
Weather by CustomWeather, © 2014

See weather overviewHow to use our weather pages